Overview Statistics Trail Chart Weather Telemetry Raw packets
 

This is the latest recevied weather packets stored in our database for station/object NL3D. If no packets are shown the sender has not sent any weather packets the latest 10 day(s).

<< 52 53 54 55 56 57 58 >>
Time Temp. Humidity Pressure Rain* Wind** Luminosity Snow
1777325130 8.33° C 55% 1009.6 hPa 0 mm - 244 W/m² -
1777324826 8.89° C 54% 1009.7 hPa 0 mm - 221 W/m² -
1777324525 8.33° C 54% 1009.5 hPa 0 mm - 251 W/m² -
1777324221 8.33° C 54% 1009.5 hPa 0 mm - 213 W/m² -
1777323920 8.33° C 54% 1009.7 hPa 0 mm - 201 W/m² -
1777323616 8.33° C 54% 1009.4 hPa 0 mm - 210 W/m² -
1777323314 8.33° C 54% 1009.5 hPa 0 mm - 191 W/m² -
1777323011 8.33° C 54% 1009.5 hPa 0 mm - 175 W/m² -
1777322709 8.33° C 54% 1009.7 hPa 0 mm - 185 W/m² -
1777322407 8.33° C 55% 1009.7 hPa 0 mm - 174 W/m² -
1777322103 8.33° C 55% 1009.9 hPa 0 mm - 172 W/m² -
1777321800 8.33° C 55% 1009.6 hPa 0 mm - 199 W/m² -
1777321496 8.33° C 55% 1009.4 hPa 0 mm - 211 W/m² -
1777321194 8.33° C 55% 1009.8 hPa 0 mm - 186 W/m² -
1777320891 8.33° C 55% 1009.8 hPa 0 mm - 180 W/m² -
1777320588 8.33° C 56% 1010.1 hPa 0 mm - 198 W/m² -
1777320286 7.78° C 56% 1009.9 hPa 0 mm - 214 W/m² -
1777319982 7.78° C 57% 1009.8 hPa 0 mm - 203 W/m² -
1777319679 7.78° C 59% 1009.9 hPa 0 mm - 197 W/m² -
1777319376 7.22° C 60% 1010 hPa 0 mm - 182 W/m² -
1777319073 7.22° C 61% 1009.8 hPa 0 mm - 168 W/m² -
1777318771 7.22° C 60% 1009.3 hPa 0 mm - 157 W/m² -
1777318466 7.78° C 58% 1009.8 hPa 0 mm - 157 W/m² -
1777318163 7.78° C 58% 1009.6 hPa 0 mm - 172 W/m² -
1777317860 7.78° C 58% 1010.2 hPa 0 mm - 198 W/m² -

* Rain latest hour (hover to see other rain measurements)
** Current wind speed in m/s (hover to see current wind gust speed)